Location: Gu�tanj
(46.5431°N, 14.9692°E)
Time: 06:11:31
(UTC+00:00)

ISS - Visible Passes

Search period start: 18 September 2021 00:00
Search period end: 28 September 2021 00:00
Orbit: 419 x 423 km, 51.6° (Epoch: 17 September)

Date Brightness Start Highest point End Pass type
(mag) Time Alt. Az. Time Alt. Az. Time Alt. Az.
18 Sep -3.8 18:52:43 10° WSW 18:56:05 86° NNW 18:56:29 67° NE visible
19 Sep -3.8 18:05:52 10° SW 18:09:13 65° SSE 18:11:43 16° ENE visible
19 Sep -1.4 19:43:01 10° W 19:44:44 24° WNW 19:44:44 24° WNW visible
20 Sep -2.9 18:55:57 10° W 18:59:14 46° NNW 18:59:50 41° NNE visible
21 Sep -3.3 18:08:55 10° WSW 18:12:15 60° NNW 18:14:51 16° ENE visible
21 Sep -1.1 19:46:25 10° WNW 19:47:51 21° NW 19:47:51 21° NW visible
22 Sep -3.7 17:21:57 10° WSW 17:25:20 83° NNW 17:28:43 10° ENE visible
22 Sep -2.5 18:59:21 10° WNW 19:02:29 34° N 19:02:46 33° N visible
23 Sep -2.6 18:12:15 10° W 18:15:28 38° N 18:17:39 17° NE visible
23 Sep -0.8 19:49:38 10° WNW 19:50:39 17° NW 19:50:39 17° NW visible
24 Sep -2.9 17:25:11 10° W 17:28:27 45° NNW 17:31:43 10° ENE visible
24 Sep -2.3 19:02:39 10° WNW 19:05:29 33° N 19:05:29 33° N visible
25 Sep -2.4 18:15:37 10° WNW 18:18:43 33° N 18:20:19 21° NE visible
25 Sep -0.5 19:52:40 10° WNW 19:53:18 14° WNW 19:53:18 14° WNW visible
26 Sep -2.5 17:28:32 10° WNW 17:31:40 34° N 17:34:47 10° ENE visible
26 Sep -2.2 19:05:44 10° WNW 19:08:06 34° NNW 19:08:06 34° NNW visible
27 Sep -2.7 18:18:47 10° WNW 18:21:57 36° N 18:22:55 30° NE visible
27 Sep -0.3 19:55:39 10° WNW 19:55:54 12° WNW 19:55:54 12° WNW visible
